Albuquerque, NM

1:50 AM MDT on June 25, 2017 (GMT -0600)
Albuquerque International Sunport

Weather History for KABQ - November, 2011

Change the Weather History Date:

Sunday, November 6, 2011

  Actual Average Record
Temperature  
Mean Temperature 41 °F 49 °F  
Max Temperature 52 °F 60 °F 78 °F (1909)
Min Temperature 29 °F 38 °F 19 °F (1935)
Degree Days  
Heating Degree Days 24 16  
Month to date heating degree days 102 90  
Since 1 July heating degree days 298 356  
Cooling Degree Days 0 0  
Month to date cooling degree days 0 0  
Year to date cooling degree days 1716 1322  
Moisture  
Dew Point 23 °F    
Average Humidity 54    
Maximum Humidity 78    
Minimum Humidity 30    
Precipitation  
Precipitation 0.00 in 0.02 in 0.32 in (1977)
Month to date precipitation 0.08 0.12  
Year to date precipitation 3.47 8.50  
Snow  
Snow 0.00 in - - ()
Month to date snowfall 0.0  
Since 1 July snowfall 0.0  
Since 1 September snowfall 0.0  
Snow Depth 0.00 in    
Sea Level Pressure  
Sea Level Pressure 29.97 in    
Wind  
Wind Speed 4 mph (SE)    
Max Wind Speed 14 mph    
Max Gust Speed 17 mph    
Visibility 10 miles    
Events      
T = Trace of Precipitation, MM = Missing Value Source: NWS Daily Summary

Daily Weather History Graph

Daily Weather History Graph

Search for Another Location

Airport or City:

Trip Planner

Search our weather history database for the weather conditions in past years. The results will help you decide how hot, cold, wet, or windy it might be!

Date:

Astronomy

Nov. 06, 2011 Rise Set
Actual Time 6:32 AM MST 5:07 PM MST
Civil Twilight 6:05 AM MST 5:34 PM MST
Nautical Twilight 5:35 AM MST 6:04 PM MST
Astronomical Twilight 5:05 AM MST 6:33 PM MST
Moon 2:46 PM MST (11/6) 2:48 AM MST (11/6)
Length of Visible Light 11h 28m
Length of Day
10h 35m
Waxing Gibbous, 86% of the Moon is Illuminated
Nov 6
Waxing Gibbous
Nov 10
Full
Nov 18
Last Quarter
Nov 24
New
Dec 2
First Quarter

Hourly Weather History & Observations

Time (MST) Temp. Windchill Dew Point Humidity Pressure Visibility Wind Dir Wind Speed Gust Speed Precip Events Conditions
12:56 AM 37.9 °F 35.5 °F 21.9 °F 53% 29.95 in 10.0 mi SW 3.5 mph - N/A   Mostly Cloudy
1:56 AM 37.9 °F 34.4 °F 21.9 °F 53% 29.95 in 10.0 mi North 4.6 mph - N/A   Mostly Cloudy
1:56 AM 34.0 °F - 24.1 °F 67% 29.96 in 10.0 mi Calm Calm - N/A   Mostly Cloudy
2:56 AM 34.0 °F 31.0 °F 24.1 °F 67% 29.95 in 10.0 mi East 3.5 mph - N/A   Overcast
3:56 AM 32.0 °F 28.7 °F 24.1 °F 73% 29.96 in 10.0 mi SSE 3.5 mph - N/A   Mostly Cloudy
4:56 AM 30.9 °F 26.2 °F 24.1 °F 76% 29.97 in 10.0 mi SE 4.6 mph - N/A   Mostly Cloudy
5:56 AM 30.9 °F - 23.0 °F 72% 30.00 in 10.0 mi Calm Calm - N/A   Partly Cloudy
6:56 AM 28.9 °F 23.9 °F 21.9 °F 75% 30.04 in 10.0 mi SE 4.6 mph - N/A   Scattered Clouds
7:56 AM 34.0 °F - 25.0 °F 70% 30.05 in 10.0 mi Calm Calm - N/A   Scattered Clouds
8:56 AM 37.0 °F 33.3 °F 25.0 °F 62% 30.06 in 10.0 mi South 4.6 mph - N/A   Scattered Clouds
9:56 AM 41.0 °F 38.0 °F 23.0 °F 49% 30.04 in 10.0 mi South 4.6 mph - N/A   Scattered Clouds
10:56 AM 45.0 °F - 23.0 °F 42% 30.02 in 10.0 mi Calm Calm - N/A   Scattered Clouds
11:56 AM 48.0 °F - 21.9 °F 36% 29.98 in 10.0 mi West 6.9 mph - N/A   Partly Cloudy
12:56 PM 50.0 °F - 21.0 °F 32% 29.93 in 10.0 mi West 10.4 mph - N/A   Scattered Clouds
1:56 PM 48.0 °F - 19.9 °F 33% 29.94 in 10.0 mi SW 5.8 mph - N/A   Mostly Cloudy
2:56 PM 50.0 °F - 21.0 °F 32% 29.93 in 10.0 mi Calm Calm - N/A   Mostly Cloudy
3:56 PM 52.0 °F - 21.0 °F 30% 29.93 in 10.0 mi Calm Calm - N/A   Mostly Cloudy
4:56 PM 48.9 °F - 21.9 °F 35% 29.96 in 10.0 mi East 4.6 mph - N/A   Scattered Clouds
5:56 PM 48.9 °F - 21.9 °F 35% 29.96 in 10.0 mi ENE 6.9 mph - N/A   Mostly Cloudy
6:56 PM 48.9 °F - 24.1 °F 38% 29.96 in 10.0 mi ENE 8.1 mph - N/A   Mostly Cloudy
7:56 PM 48.0 °F - 24.1 °F 39% 29.94 in 10.0 mi NE 6.9 mph - N/A   Mostly Cloudy
8:56 PM 48.0 °F - 24.1 °F 39% 29.94 in 10.0 mi ENE 3.5 mph - N/A   Overcast
9:56 PM 46.0 °F 43.1 °F 27.0 °F 47% 29.93 in 10.0 mi SSE 5.8 mph - N/A   Mostly Cloudy
10:56 PM 45.0 °F 39.3 °F 28.0 °F 52% 29.94 in 10.0 mi South 11.5 mph - N/A   Mostly Cloudy